Danbury, CT

1:03 AM EDT on April 28, 2017 (GMT -0400)
Danbury Municipal

Weather History for KDXR - December, 2001

Change the Weather History Date:

Tuesday, December 18, 2001

  Actual Average Record
Temperature  
Mean Temperature 42 °F -  
Max Temperature 46 °F 35 °F 58 °F (1984)
Min Temperature 37 °F 19 °F 1 °F (1980)
Degree Days  
Heating Degree Days 24    
Moisture  
Dew Point 37 °F    
Average Humidity 83    
Maximum Humidity 100    
Minimum Humidity 58    
Precipitation  
Precipitation 0.57 in - - ()
Sea Level Pressure  
Sea Level Pressure 29.39 in    
Wind  
Wind Speed 5 mph (NNW)    
Max Wind Speed 17 mph    
Max Gust Speed 28 mph    
Visibility 7 miles    
Events Rain    
Averages and records for this station are not official NWS values.
T = Trace of Precipitation, MM = Missing Value Source: NWS Daily Summary

Daily Weather History Graph

Daily Weather History Graph

Search for Another Location

Airport or City:

Trip Planner

Search our weather history database for the weather conditions in past years. The results will help you decide how hot, cold, wet, or windy it might be!

Date:

Astronomy

Dec. 18, 2001 Rise Set
Actual Time 7:14 AM EST 4:26 PM EST
Civil Twilight 6:43 AM EST 4:57 PM EST
Nautical Twilight 6:08 AM EST 5:32 PM EST
Astronomical Twilight 5:35 AM EST 6:06 PM EST
Moon 10:21 AM EST (12/18) 8:04 PM EST (12/18)
Length of Visible Light 10h 14m
Length of Day
9h 11m
Waxing Crescent, 14% of the Moon is Illuminated
Dec 18
Waxing Crescent
Dec 22
First Quarter
Dec 30
Full
Jan 5
Last Quarter
Jan 13
New

Hourly Weather History & Observations

Time (EST) Temp. Windchill Dew Point Humidity Pressure Visibility Wind Dir Wind Speed Gust Speed Precip Events Conditions
12:16 AM 44.6 °F 43.1 °F 44.6 °F 100% 29.45 in 4.0 mi NW 3.5 mph - N/A   Overcast
12:44 AM 44.6 °F - 42.8 °F 93% 29.42 in 2.5 mi Calm Calm - 0.00 in Rain Light Rain
12:53 AM 44.1 °F - 43.0 °F 96% 29.43 in 2.5 mi Calm Calm - 0.01 in Rain Light Rain
1:24 AM 44.6 °F - 44.6 °F 100% 29.39 in 1.8 mi Calm Calm - 0.01 in Rain Light Rain
1:38 AM 44.6 °F 43.1 °F 44.6 °F 100% 29.41 in 2.0 mi North 3.5 mph - 0.03 in Rain Light Rain
1:53 AM 44.1 °F - 44.1 °F 100% 29.38 in 1.8 mi Calm Calm - 0.06 in Rain Rain
2:06 AM 44.6 °F 41.4 °F 42.8 °F 93% 29.38 in 2.0 mi North 5.8 mph - 0.01 in Rain Light Rain
2:53 AM 44.1 °F - 43.0 °F 96% 29.33 in 3.0 mi Calm Calm - 0.07 in Rain Light Rain
3:25 AM 44.6 °F - 42.8 °F 93% 29.31 in 3.0 mi Calm Calm - 0.01 in Rain Light Rain
3:53 AM 44.1 °F - 43.0 °F 96% 29.28 in 2.5 mi Calm Calm - 0.04 in Rain Rain
4:10 AM 44.6 °F 42.2 °F 42.8 °F 93% 29.26 in 4.0 mi ENE 4.6 mph - 0.03 in Rain Rain
4:32 AM 44.6 °F 42.2 °F 42.8 °F 93% 29.25 in 7.0 mi NE 4.6 mph - 0.04 in Rain Light Rain
4:53 AM 44.1 °F 41.5 °F 43.0 °F 96% 29.24 in 7.0 mi NNE 4.6 mph - 0.04 in   Overcast
5:18 AM 44.6 °F - 42.8 °F 93% 29.25 in 2.0 mi Calm Calm - 0.08 in Rain Heavy Rain
5:46 AM 44.6 °F - 42.8 °F 93% 29.25 in 2.5 mi Calm Calm - 0.17 in Rain Rain
5:53 AM 44.1 °F - 43.0 °F 96% 29.26 in 3.0 mi Calm Calm - 0.19 in Rain Rain
6:05 AM 44.6 °F 43.1 °F 42.8 °F 93% 29.25 in 2.5 mi North 3.5 mph - 0.03 in Rain Rain
6:21 AM 44.6 °F 43.1 °F 42.8 °F 93% 29.26 in 3.0 mi North 3.5 mph - 0.07 in Rain Rain
6:45 AM 44.6 °F 39.7 °F 42.8 °F 93% 29.26 in 5.0 mi North 9.2 mph - 0.11 in Rain Light Rain
6:53 AM 44.1 °F 38.6 °F 42.1 °F 93% 29.27 in 5.0 mi North 10.4 mph - 0.12 in Rain Light Rain
7:14 AM 42.8 °F 36.6 °F 39.2 °F 87% 29.27 in 6.0 mi North 11.5 mph 20.7 mph 0.02 in Rain Rain
7:53 AM 39.9 °F 32.5 °F 36.0 °F 86% 29.28 in 10.0 mi North 12.7 mph 23.0 mph 0.03 in Rain Light Rain
8:53 AM 37.9 °F 28.5 °F 34.0 °F 86% 29.29 in 10.0 mi North 17.3 mph 21.9 mph 0.00 in   Overcast
9:04 AM 37.4 °F 28.2 °F 33.8 °F 87% 29.29 in 10.0 mi North 16.1 mph 19.6 mph N/A   Overcast
9:53 AM 37.9 °F 29.6 °F 33.1 °F 83% 29.34 in 10.0 mi North 13.8 mph 19.6 mph 0.01 in Rain Light Rain
10:53 AM 39.0 °F 31.0 °F 34.0 °F 82% 29.37 in 10.0 mi NNW 13.8 mph 18.4 mph 0.00 in   Mostly Cloudy
11:53 AM 41.0 °F 33.5 °F 35.1 °F 79% 29.37 in 10.0 mi NW 13.8 mph 23.0 mph N/A   Overcast
12:06 PM 41.0 °F 35.2 °F 35.6 °F 81% 29.36 in 10.0 mi NNW 9.2 mph - N/A   Overcast
12:14 PM 42.8 °F 37.0 °F 35.6 °F 76% 29.36 in 10.0 mi NW 10.4 mph - N/A   Overcast
12:23 PM 42.8 °F 37.5 °F 35.6 °F 76% 29.37 in 10.0 mi NNW 9.2 mph - N/A   Overcast
12:53 PM 42.1 °F 37.7 °F 35.1 °F 76% 29.39 in 10.0 mi NW 6.9 mph - N/A   Overcast
1:33 PM 44.6 °F 38.4 °F 33.8 °F 66% 29.39 in 10.0 mi NNW 12.7 mph 23.0 mph N/A   Overcast
1:53 PM 46.0 °F 39.3 °F 32.0 °F 58% 29.41 in 10.0 mi NNW 16.1 mph 27.6 mph N/A   Mostly Cloudy
2:53 PM 44.1 °F 37.4 °F 30.0 °F 58% 29.43 in 10.0 mi NW 13.8 mph 24.2 mph N/A   Partly Cloudy
3:53 PM 44.1 °F 37.1 °F 30.0 °F 58% 29.47 in 10.0 mi WNW 15.0 mph 24.2 mph N/A   Mostly Cloudy
4:53 PM 42.1 °F 36.1 °F 28.9 °F 60% 29.52 in 10.0 mi WNW 10.4 mph - N/A   Overcast
5:53 PM 42.1 °F 35.2 °F 28.9 °F 60% 29.55 in 10.0 mi West 12.7 mph 17.3 mph N/A   Clear
6:53 PM 41.0 °F 35.2 °F 28.0 °F 60% 29.58 in 10.0 mi WNW 9.2 mph - N/A   Clear
7:53 PM 41.0 °F 33.5 °F 28.9 °F 62% 29.59 in 10.0 mi West 13.8 mph 19.6 mph N/A   Partly Cloudy
8:53 PM 41.0 °F 34.7 °F 30.0 °F 65% 29.61 in 10.0 mi NW 10.4 mph - N/A   Partly Cloudy
9:53 PM 39.9 °F 37.8 °F 30.0 °F 68% 29.65 in 10.0 mi WNW 3.5 mph - N/A   Overcast
10:53 PM 39.9 °F 37.8 °F 30.0 °F 68% 29.67 in 10.0 mi NW 3.5 mph - N/A   Overcast
11:53 PM 39.0 °F - 30.0 °F 70% 29.69 in 10.0 mi Calm Calm - N/A   Overcast